LHOB289 LTFM-OJAI

Flight info

Callsign LHOB289
Flight time N/A
Altitude 33000
Route RATVU1G/17R RATVU UT35 AYT UM855 TOMBI DCT SAFTA L324 GENIV L550 KARIK B411 ULINA M319 LOSIL
Aircraft C17/H-SDE1E2FGHIJ5RTUWXY/LB1D1

Departure

Time N/A
Airport İstanbul Airport (LTFM)

Arrival

Time 2026-05-08 20:10
Airport Queen Alia International Airport (OJAI)
Time Latitude Longitude Altitude Speed Heading
2026-05-08 20:10 31.72744 35.99955 2405 ft 0 kts 171°
2026-05-08 20:13 31.72758 35.99952 2406 ft 8 kts 170°
2026-05-08 20:13 31.72785 35.99946 2405 ft 8 kts 168°
2026-05-08 20:13 31.72808 35.99941 2402 ft 8 kts 162°
2026-05-08 20:14 31.72825 35.99926 2403 ft 8 kts 99°
2026-05-08 20:14 31.72825 35.99898 2404 ft 7 kts 80°
2026-05-08 20:14 31.72825 35.99897 2404 ft 0 kts 80°
2026-05-08 20:16 31.72826 35.99904 2405 ft 3 kts 80°
2026-05-08 20:16 31.72834 35.99963 2405 ft 11 kts 80°
2026-05-08 20:17 31.72851 36.00080 2406 ft 18 kts 81°
2026-05-08 20:17 31.72874 36.00246 2406 ft 23 kts 80°
2026-05-08 20:17 31.72905 36.00455 2406 ft 28 kts 80°
2026-05-08 20:17 31.72935 36.00664 2407 ft 20 kts 81°
2026-05-08 20:18 31.72990 36.00778 2407 ft 15 kts 17°
2026-05-08 20:18 31.73082 36.00769 2408 ft 13 kts 351°
2026-05-08 20:18 31.73192 36.00748 2407 ft 19 kts 348°
2026-05-08 20:18 31.73217 36.00689 2406 ft 7 kts 264°
2026-05-08 20:19 31.73198 36.00553 2406 ft 34 kts 260°
2026-05-08 20:19 31.73134 36.00097 2406 ft 78 kts 261°
2026-05-08 20:19 31.73022 35.99324 2407 ft 112 kts 260°
2026-05-08 20:19 31.72877 35.98308 2408 ft 141 kts 261°
2026-05-08 20:20 31.72695 35.97110 2707 ft 155 kts 261°
2026-05-08 20:20 31.72480 35.95815 3250 ft 167 kts 261°
2026-05-08 20:20 31.72262 35.94450 3849 ft 172 kts 262°
2026-05-08 20:20 31.72034 35.93013 4316 ft 185 kts 262°
2026-05-08 20:21 31.71797 35.91496 4836 ft 192 kts 261°
2026-05-08 20:21 31.71547 35.89881 5158 ft 210 kts 262°
2026-05-08 20:21 31.71281 35.88146 5576 ft 224 kts 262°
2026-05-08 20:21 31.70989 35.86206 5686 ft 257 kts 260°
2026-05-08 20:22 31.70664 35.84045 6032 ft 280 kts 260°
2026-05-08 20:22 31.70319 35.81749 6510 ft 297 kts 259°
2026-05-08 20:22 31.69952 35.79305 7040 ft 311 kts 259°
2026-05-08 20:22 31.69568 35.76764 7624 ft 320 kts 258°
2026-05-08 20:23 31.69172 35.74146 8366 ft 321 kts 258°
2026-05-08 20:23 31.68783 35.71575 9299 ft 318 kts 257°
2026-05-08 20:23 31.68441 35.69056 10214 ft 315 kts 260°
2026-05-08 20:23 31.68175 35.66519 11083 ft 311 kts 266°
2026-05-08 20:24 31.68593 35.64053 11963 ft 310 kts 297°
2026-05-08 20:24 31.69960 35.62142 12933 ft 306 kts 321°
2026-05-08 20:24 31.71781 35.60882 13869 ft 302 kts 329°
2026-05-08 20:24 31.73624 35.59706 14690 ft 301 kts 328°
2026-05-08 20:25 31.75455 35.58518 15488 ft 300 kts 328°
2026-05-08 20:25 31.77277 35.57333 16306 ft 298 kts 328°
2026-05-08 20:25 31.79080 35.56156 17144 ft 294 kts 328°
2026-05-08 20:25 31.80757 35.54869 17868 ft 291 kts 314°
2026-05-08 20:26 31.81935 35.52983 18577 ft 286 kts 294°
2026-05-08 20:26 31.82579 35.50784 19218 ft 284 kts 287°
2026-05-08 20:26 31.83241 35.48595 19840 ft 284 kts 290°
2026-05-08 20:26 31.83894 35.46383 20398 ft 288 kts 289°
2026-05-08 20:27 31.84538 35.44142 20939 ft 291 kts 290°
2026-05-08 20:27 31.85219 35.41868 21411 ft 298 kts 290°
2026-05-08 20:27 31.85923 35.39546 21893 ft 305 kts 290°
2026-05-08 20:27 31.86626 35.37199 22353 ft 311 kts 290°